Time,TemperatureF,DewpointF,PressureIn,WindDirection,WindDirectionDegrees,WindSpeedMPH,WindSpeedGustMPH,Humidity,HourlyPrecipIn,Conditions,Clouds,dailyrainin,SoftwareType,DateUTC
2013-04-10 00:00:00,32.0,32.0,-100.00,NNE,20,4.0,6.0,99,0.01,,,0.07,,2013-04-10 00:00:00,
2013-04-10 00:10:00,32.0,32.0,-100.00,North,10,3.0,5.0,99,0.01,,,0.07,,2013-04-10 00:10:00,
2013-04-10 00:20:00,32.0,32.0,-100.00,North,5,4.0,5.0,99,0.02,,,0.08,,2013-04-10 00:20:00,
2013-04-10 00:30:00,32.0,32.0,-100.00,North,5,3.0,4.0,99,0.01,,,0.08,,2013-04-10 00:30:00,
2013-04-10 00:40:00,32.0,32.0,-100.00,North,5,2.0,4.0,99,0.01,,,0.08,,2013-04-10 00:40:00,
2013-04-10 01:30:00,32.0,32.0,-100.00,North,5,1.0,2.0,99,0.01,,,0.08,,2013-04-10 01:30:00,
2013-04-10 02:20:00,31.0,30.0,-100.00,North,5,3.0,3.0,99,0.00,,,0.09,,2013-04-10 02:20:00,
2013-04-10 02:30:00,31.0,30.0,-100.00,North,5,2.0,4.0,99,0.00,,,0.09,,2013-04-10 02:30:00,
2013-04-10 02:40:00,31.0,30.0,-100.00,North,5,4.0,4.0,99,0.00,,,0.09,,2013-04-10 02:40:00,
2013-04-10 02:50:00,31.0,30.0,-100.00,North,5,3.0,4.0,99,0.00,,,0.09,,2013-04-10 02:50:00,
2013-04-10 03:00:00,31.0,30.0,-100.00,North,5,3.0,4.0,99,0.01,,,0.09,,2013-04-10 03:00:00,
2013-04-10 03:20:00,31.0,30.0,-100.00,North,5,3.0,4.0,99,0.00,,,0.09,,2013-04-10 03:20:00,
2013-04-10 03:30:00,31.0,30.0,-100.00,NNE,15,2.0,4.0,99,0.00,,,0.09,,2013-04-10 03:30:00,
2013-04-10 03:40:00,31.0,30.0,-100.00,NNE,30,2.0,3.0,99,0.00,,,0.09,,2013-04-10 03:40:00,
2013-04-10 03:50:00,31.0,30.0,-100.00,NNE,20,2.0,3.0,99,0.00,,,0.09,,2013-04-10 03:50:00,
2013-04-10 04:00:00,31.0,30.0,-100.00,NNE,30,3.0,4.0,99,0.00,,,0.09,,2013-04-10 04:00:00,
2013-04-10 04:30:00,31.0,30.0,-100.00,NE,40,3.0,4.0,99,0.00,,,0.09,,2013-04-10 04:30:00,
2013-04-10 04:40:00,31.0,30.0,-100.00,NE,50,6.0,7.0,99,0.00,,,0.09,,2013-04-10 04:40:00,
2013-04-10 04:50:00,31.0,30.0,-100.00,NE,50,4.0,6.0,99,0.00,,,0.09,,2013-04-10 04:50:00,
2013-04-10 05:00:00,31.0,30.0,-100.00,NNE,25,3.0,6.0,99,0.00,,,0.09,,2013-04-10 05:00:00,
2013-04-10 05:20:00,30.0,30.0,-100.00,NNE,30,4.0,5.0,99,0.00,,,0.09,,2013-04-10 05:20:00,
2013-04-10 05:30:00,30.0,30.0,-100.00,NE,40,3.0,4.0,99,0.00,,,0.09,,2013-04-10 05:30:00,
2013-04-10 07:00:00,30.0,28.0,-100.00,NNE,25,2.0,3.0,99,0.00,,,0.09,,2013-04-10 07:00:00,
2013-04-10 07:10:00,29.0,28.0,-100.00,NE,40,2.0,4.0,99,0.00,,,0.09,,2013-04-10 07:10:00,
2013-04-10 07:20:00,29.0,28.0,-100.00,NNE,30,3.0,4.0,99,0.00,,,0.09,,2013-04-10 07:20:00,
2013-04-10 07:30:00,29.0,28.0,-100.00,NE,40,2.0,4.0,99,0.00,,,0.09,,2013-04-10 07:30:00,
2013-04-10 07:40:00,29.0,28.0,-100.00,NE,35,2.0,4.0,99,0.00,,,0.09,,2013-04-10 07:40:00,
2013-04-10 07:50:00,30.0,28.0,-100.00,NE,45,2.0,3.0,99,0.00,,,0.09,,2013-04-10 07:50:00,
2013-04-10 08:00:00,29.0,28.0,-100.00,NE,40,3.0,4.0,99,0.00,,,0.09,,2013-04-10 08:00:00,
2013-04-10 08:10:00,29.0,28.0,-100.00,NE,50,2.0,4.0,99,0.00,,,0.09,,2013-04-10 08:10:00,
2013-04-10 08:20:00,29.0,28.0,-100.00,NE,50,2.0,4.0,99,0.00,,,0.09,,2013-04-10 08:20:00,
2013-04-10 08:30:00,29.0,28.0,-100.00,NE,45,2.0,4.0,99,0.00,,,0.09,,2013-04-10 08:30:00,
2013-04-10 08:40:00,29.0,28.0,-100.00,NE,55,2.0,3.0,99,0.00,,,0.09,,2013-04-10 08:40:00,
2013-04-10 08:50:00,29.0,28.0,-100.00,NE,55,2.0,3.0,99,0.00,,,0.09,,2013-04-10 08:50:00,
2013-04-10 09:10:00,29.0,28.0,-100.00,NE,55,3.0,4.0,99,0.00,,,0.09,,2013-04-10 09:10:00,
2013-04-10 09:20:00,29.0,28.0,-100.00,ENE,65,2.0,3.0,99,0.00,,,0.09,,2013-04-10 09:20:00,
2013-04-10 09:30:00,29.0,28.0,-100.00,ENE,60,2.0,2.0,99,0.00,,,0.09,,2013-04-10 09:30:00,
2013-04-10 09:40:00,29.0,28.0,-100.00,ENE,65,2.0,2.0,99,0.00,,,0.08,,2013-04-10 09:40:00,
2013-04-10 09:50:00,29.0,28.0,-100.00,ENE,65,2.0,3.0,99,0.00,,,0.08,,2013-04-10 09:50:00,
2013-04-10 10:00:00,29.0,28.0,-100.00,NE,55,2.0,2.0,99,0.00,,,0.08,,2013-04-10 10:00:00,
2013-04-10 10:10:00,29.0,28.0,-100.00,NE,50,1.0,2.0,99,0.00,,,0.08,,2013-04-10 10:10:00,
2013-04-10 10:20:00,29.0,28.0,-100.00,NE,40,1.0,2.0,99,0.00,,,0.08,,2013-04-10 10:20:00,
2013-04-10 10:30:00,29.0,28.0,-100.00,NNE,30,1.0,2.0,99,0.00,,,0.08,,2013-04-10 10:30:00,
2013-04-10 10:40:00,29.0,28.0,-100.00,NE,35,1.0,2.0,99,0.00,,,0.07,,2013-04-10 10:40:00,
2013-04-10 10:50:00,29.0,28.0,-100.00,NE,40,2.0,2.0,99,0.00,,,0.07,,2013-04-10 10:50:00,
2013-04-10 11:00:00,29.0,28.0,-100.00,NE,45,2.0,2.0,99,0.00,,,0.07,,2013-04-10 11:00:00,
2013-04-10 11:20:00,29.0,28.0,-100.00,NE,50,2.0,2.0,99,0.00,,,0.07,,2013-04-10 11:20:00,
2013-04-10 11:30:00,28.0,28.0,-100.00,NE,45,2.0,3.0,99,0.00,,,0.06,,2013-04-10 11:30:00,
2013-04-10 11:40:00,28.0,28.0,-100.00,NE,45,2.0,3.0,99,0.00,,,0.06,,2013-04-10 11:40:00,
2013-04-10 11:50:00,28.0,28.0,-100.00,NE,50,2.0,3.0,99,0.00,,,0.06,,2013-04-10 11:50:00,
2013-04-10 12:00:00,28.0,28.0,-100.00,NE,50,2.0,2.0,99,0.00,,,0.06,,2013-04-10 12:00:00,
2013-04-10 12:10:00,29.0,28.0,-100.00,NE,45,2.0,3.0,99,0.00,,,0.06,,2013-04-10 12:10:00,
2013-04-10 12:20:00,29.0,28.0,-100.00,NE,45,2.0,2.0,99,0.00,,,0.06,,2013-04-10 12:20:00,
2013-04-10 12:30:00,29.0,28.0,-100.00,NE,45,2.0,3.0,99,0.00,,,0.06,,2013-04-10 12:30:00,
2013-04-10 16:10:00,31.0,30.0,-100.00,NNE,30,1.0,1.0,99,0.00,,,0.03,,2013-04-10 16:10:00,
2013-04-10 16:20:00,31.0,30.0,-100.00,NNE,25,1.0,2.0,99,0.00,,,0.03,,2013-04-10 16:20:00,
2013-04-10 16:30:00,31.0,30.0,-100.00,NNE,25,1.0,2.0,99,0.00,,,0.03,,2013-04-10 16:30:00,
2013-04-10 16:40:00,31.0,30.0,-100.00,NNE,15,1.0,2.0,99,0.00,,,0.03,,2013-04-10 16:40:00,
2013-04-10 16:50:00,31.0,30.0,-100.00,NNE,30,1.0,1.0,99,0.00,,,0.03,,2013-04-10 16:50:00,
2013-04-10 17:00:00,31.0,30.0,-100.00,NNE,25,0.0,1.0,99,0.00,,,0.03,,2013-04-10 17:00:00,
2013-04-10 17:20:00,31.0,30.0,-100.00,NE,50,0.0,1.0,99,0.00,,,0.03,,2013-04-10 17:20:00,
2013-04-10 17:30:00,31.0,30.0,-100.00,NE,45,0.0,1.0,99,0.00,,,0.03,,2013-04-10 17:30:00,
2013-04-10 17:40:00,31.0,30.0,-100.00,NE,50,1.0,1.0,99,0.00,,,0.03,,2013-04-10 17:40:00,
2013-04-10 18:00:00,31.0,30.0,-100.00,NE,50,0.0,1.0,99,0.00,,,0.03,,2013-04-10 18:00:00,
2013-04-10 18:10:00,31.0,30.0,-100.00,ENE,60,0.0,0.0,99,0.00,,,0.03,,2013-04-10 18:10:00,
2013-04-10 18:20:00,31.0,30.0,-100.00,ENE,60,0.0,1.0,99,0.00,,,0.03,,2013-04-10 18:20:00,
2013-04-10 18:30:00,31.0,30.0,-100.00,NE,55,0.0,0.0,99,0.00,,,0.03,,2013-04-10 18:30:00,
2013-04-10 18:40:00,31.0,30.0,-100.00,NE,50,0.0,1.0,99,0.00,,,0.03,,2013-04-10 18:40:00,
2013-04-10 18:50:00,31.0,30.0,-100.00,NE,50,0.0,1.0,99,0.00,,,0.03,,2013-04-10 18:50:00,
2013-04-10 19:00:00,31.0,30.0,-100.00,NE,55,0.0,1.0,99,0.00,,,0.03,,2013-04-10 19:00:00,
2013-04-10 19:20:00,31.0,30.0,-100.00,NE,50,0.0,1.0,99,0.00,,,0.03,,2013-04-10 19:20:00,
2013-04-10 19:40:00,31.0,30.0,-100.00,NE,50,0.0,0.0,99,0.00,,,0.03,,2013-04-10 19:40:00,
2013-04-10 19:50:00,31.0,30.0,-100.00,ENE,60,0.0,1.0,99,0.00,,,0.03,,2013-04-10 19:50:00,
2013-04-10 20:00:00,31.0,30.0,-100.00,NE,50,0.0,0.0,99,0.00,,,0.03,,2013-04-10 20:00:00,
2013-04-10 20:10:00,31.0,30.0,-100.00,ENE,65,0.0,0.0,99,0.00,,,0.03,,2013-04-10 20:10:00,
2013-04-10 20:20:00,31.0,30.0,-100.00,ENE,60,0.0,0.0,99,0.00,,,0.03,,2013-04-10 20:20:00,
2013-04-10 20:30:00,31.0,30.0,-100.00,NE,55,0.0,1.0,99,0.00,,,0.03,,2013-04-10 20:30:00,
2013-04-10 20:40:00,31.0,30.0,-100.00,ENE,65,0.0,0.0,99,0.00,,,0.03,,2013-04-10 20:40:00,
2013-04-10 20:50:00,31.0,30.0,-100.00,ENE,70,0.0,0.0,99,0.00,,,0.03,,2013-04-10 20:50:00,
2013-04-10 22:50:00,31.0,30.0,-100.00,ENE,65,0.0,0.0,99,0.00,,,0.03,,2013-04-10 22:50:00,
2013-04-10 23:00:00,31.0,30.0,-100.00,NE,55,0.0,1.0,99,0.00,,,0.03,,2013-04-10 23:00:00,
2013-04-10 23:20:00,31.0,30.0,-100.00,NE,55,0.0,0.0,99,0.00,,,0.02,,2013-04-10 23:20:00,
2013-04-10 23:30:00,31.0,30.0,-100.00,ENE,60,0.0,1.0,99,0.00,,,0.02,,2013-04-10 23:30:00,
2013-04-10 23:40:00,31.0,30.0,-100.00,ENE,65,0.0,1.0,99,0.00,,,0.02,,2013-04-10 23:40:00,
2013-04-10 23:50:00,31.0,30.0,-100.00,ENE,65,0.0,0.0,99,0.00,,,0.02,,2013-04-10 23:50:00,